Location: Falconara Alta
(43.6167°N, 13.4000°E)
Time: 03:22:22
(UTC+00:00)

SJ-11-01 - Pass Details

Date: 09 April 2020
Orbit: 683 x 701 km, 98.0° (Epoch: 02 June)

Event Time Altitude Azimuth Distance (km) Brightness Sun altitude
Rises 18:06:23 0° 158° (SSE) 3,055 7.2 -4.9°
Reaches altitude 10° 18:08:37 10° 156° (SSE) 2,145 6.4 -5.3°
Maximum altitude 18:13:16 67° 74° (ENE) 756 4.3 -6.1°
Drops below altitude 10° 18:18:00 10° 352° (N) 2,171 7.2 -6.9°
Sets 18:20:16 0° 350° (N) 3,095 8.1 -7.3°
